[[{"header":{"parameterUnit":"m.s-1","parameterCategory":1,"la1":30.2991,"la2":30.254,"lo1":-89.0895,"lo2":-89.0444,"dy":0.0017,"dx":0.0017,"nx":28,"ny":28,"refTime":"2023-05-26T21:00:00:Z","depth":0,"parameterNumber":2,"parameterNumberName":"U-component_of_WINDS"},"data":[0,0,0,0,0,0,0,0,0,0,0,0,0,0,0,0,0,0,0,0,0,0,0,0,0,0,0,0,0,0,0,0,0,0,0,0,0,0,0,0,0,0,0,0,0,0,0,0,0,0,0,0,0,0,0,0,0,0,1.0349,1.0348,0,1.0235,1.0233,1.0232,1.0146,1.0145,1.0144,1.0143,1.002,1.0018,1.0015,0,0,0,0,0,0,0,0,0,0,0,0,0,1.0489,1.0487,1.0349,1.0348,1.0347,1.0235,1.0233,1.0232,1.0146,1.0145,1.0144,1.0143,1.0021,1.0018,1.0015,0,0,0,0,0,0,0,0,0,0,0,0,0,1.0406,1.0486,1.035,1.029,1.0284,1.0235,1.0233,1.0231,1.0146,1.0145,1.0144,1.0142,1.0022,1.0018,1.0015,1.0014,0,0,1.0003,1.0001,0,0,0,0,0,0,0,0,1.0411,1.0401,1.03,1.0294,1.0287,1.0203,1.0237,1.0158,1.0146,1.0198,1.0143,1.0142,1.0082,1.0073,1.0054,1.0008,1.0003,1.0002,1.0,0.9998,0.9997,0,0,0,0,0,0,0,1.0417,1.0406,1.0304,1.0299,1.0291,1.0268,1.0255,1.0222,1.0147,1.0193,1.0187,1.0175,1.0078,1.0058,1.005,1.0001,1.0003,0.9999,0.9997,0.9995,0.9948,0.9949,0,0,0,0,0,0,1.0433,1.0411,1.0307,1.03,1.0348,1.0266,1.0252,1.0231,1.0148,1.0134,1.0176,1.0171,1.0065,1.0055,1.0046,1.0039,0.9999,0.9995,0.9993,0.9947,0.9948,0.995,0,0,0,0,0,0,1.0436,1.0424,1.0312,1.0354,1.0338,1.0265,1.0243,1.023,1.0209,1.0135,1.012,1.0169,1.0063,1.0051,1.0023,1.0034,0.9993,0.999,0.9946,0.9948,0.9949,1.0027,0,0,0,0,0,0,1.044,1.0426,1.0426,1.0355,1.0336,1.0293,1.0243,1.0228,1.0204,1.0196,1.0125,1.0112,1.0062,1.0029,1.0019,1.0028,0.9987,0.9945,0.9947,0.9949,1.0023,1.0031,1.0037,0,0,0,0,0,1.0446,1.0451,1.0427,1.0415,1.0335,1.0294,1.0283,1.0227,1.0205,1.0204,1.0156,1.0114,1.0034,1.0027,1.0015,1.0022,0.9944,0.9946,0.9948,1.0019,1.0029,1.0037,0,0,0,0,0,0,1.0524,1.0441,1.0413,1.0396,1.0353,1.0279,1.0276,1.0239,1.02,1.0194,1.0125,1.0109,1.0088,1.0052,1.0045,1.0017,0.9983,0.9984,1.0042,1.005,1.0057,1.0066,0.9983,0,0,0,0,0,1.054,1.0515,1.0443,1.0435,1.0415,1.035,1.033,1.029,1.0242,1.0223,1.0173,1.0126,1.009,1.0068,1.0031,1.0017,0.9999,1.0016,1.0024,1.003,1.0031,1.002,1.0026,0.9957,0.9957,0.9957,0,0,1.0571,1.0523,1.0511,1.045,1.0412,1.0386,1.0335,1.031,1.0289,1.0218,1.0189,1.0151,1.0094,1.0073,1.0061,1.0042,1.0046,1.0033,1.0039,1.0036,1.0023,1.003,1.0036,0.9959,0.9959,0.9958,0,0,1.0616,1.0577,1.0566,1.053,1.0474,1.043,1.0428,1.036,1.0333,1.0303,1.0249,1.0222,1.0163,1.0124,1.0097,1.0128,1.0087,1.0117,1.0155,1.0146,1.0151,1.0156,1.0166,1.0171,1.0118,1.0119,1.0119,0,1.0662,1.0623,1.0565,1.0544,1.0518,1.0454,1.0442,1.0408,1.0342,1.0325,1.0305,1.0229,1.0186,1.0155,1.0163,1.0143,1.0137,1.0125,1.0156,1.016,1.0163,1.0172,1.0176,1.0123,1.0122,1.0122,1.0121,0,1.0681,1.0655,1.0653,1.0593,1.0567,1.055,1.0488,1.0468,1.0431,1.039,1.0359,1.0306,1.0257,1.0247,1.0209,1.021,1.02,1.0169,1.0134,1.0174,1.0182,1.0185,1.0128,1.0127,1.0126,1.0125,0,0,1.0772,1.0681,1.0681,1.0654,1.0587,1.0565,1.0545,1.0499,1.0483,1.0439,1.042,1.0371,1.0342,1.0311,1.0269,1.026,1.0288,1.023,1.0227,1.0242,1.0284,1.0308,1.0313,1.0261,1.0261,1.0261,1.0289,0,1.0806,1.0768,1.0716,1.0695,1.067,1.0609,1.0591,1.0548,1.0508,1.0479,1.0434,1.0401,1.0365,1.0346,1.0335,1.0287,1.0295,1.0284,1.024,1.0239,1.0257,1.0317,1.0342,1.0371,1.0291,1.0292,1.0292,0,1.084,1.0803,1.078,1.0716,1.0703,1.0689,1.0643,1.0616,1.0565,1.0536,1.0503,1.0458,1.0431,1.04,1.0362,1.0356,1.0335,1.0308,1.0308,1.0301,1.0268,1.0312,1.0379,1.0383,1.0296,1.0296,1.0296,0,1.0909,1.0852,1.0831,1.0809,1.0734,1.0725,1.0693,1.0641,1.0617,1.0575,1.0559,1.0514,1.049,1.0456,1.0399,1.0382,1.0367,1.0331,1.0341,1.0343,1.0341,1.0342,1.0405,1.0328,1.0328,1.0328,1.0327,0,1.0952,1.0941,1.0861,1.0848,1.0833,1.0772,1.0758,1.072,1.0674,1.0652,1.0596,1.0575,1.0502,1.0472,1.0427,1.0403,1.0392,1.0367,1.0355,1.0372,1.0375,1.0357,1.0353,1.0329,1.0328,1.0328,1.0328,0,1.1026,1.0972,1.0945,1.0877,1.086,1.0852,1.0792,1.0776,1.0734,1.0706,1.0695,1.0628,1.059,1.0531,1.0474,1.0444,1.0427,1.0407,1.0445,1.0438,1.0451,1.0451,1.0505,1.0509,1.043,1.0431,1.0432,0,1.1057,1.1047,1.0978,1.096,1.0931,1.0902,1.0878,1.0817,1.0793,1.0735,1.0726,1.0684,1.0648,1.059,1.0534,1.0491,1.047,1.0492,1.0463,1.048,1.047,1.0471,1.0469,1.0498,1.05,1.0501,1.0501,0,1.1118,1.1092,1.1061,1.102,1.0993,1.0957,1.0918,1.0906,1.0836,1.0812,1.0774,1.0746,1.069,1.0648,1.0597,1.0562,1.052,1.0511,1.0511,1.0528,1.055,1.0538,1.0463,1.051,1.0509,1.0508,1.0508,1.0508,1.1171,1.116,1.111,1.1076,1.1041,1.1006,1.0989,1.0944,1.0912,1.0863,1.0829,1.0793,1.074,1.0668,1.0635,1.0604,1.0586,1.0586,1.0586,1.0587,1.0593,1.0556,1.0595,1.0594,1.0594,1.0594,1.0594,0,1.1229,1.1195,1.1165,1.1113,1.1086,1.1051,1.1006,1.0986,1.0956,1.0912,1.0878,1.0833,1.0793,1.0735,1.069,1.0677,1.0656,1.0667,1.0667,1.0659,1.0612,1.0617,1.0684,1.0684,1.0684,1.0684,1.0684,1.0684,1.1257,1.1236,1.1204,1.1164,1.1128,1.1095,1.1072,1.1039,1.1004,1.0958,1.0925,1.0888,1.0838,1.0789,1.075,1.0734,1.0719,1.0736,1.0714,1.0671,1.0663,1.0655,1.0659,1.0734,1.0734,1.0763,1.0764,1.0764]},{"header":{"parameterUnit":"m.s-1","parameterCategory":1,"la1":30.2991,"la2":30.254,"lo1":-89.0895,"lo2":-89.0444,"dy":0.0017,"dx":0.0017,"nx":28,"ny":28,"refTime":"2023-05-26T21:00:00:Z","depth":0,"parameterNumber":3,"parameterNumberName":"V-component_of_WINDS"},"data":[0,0,0,0,0,0,0,0,0,0,0,0,0,0,0,0,0,0,0,0,0,0,0,0,0,0,0,0,0,0,0,0,0,0,0,0,0,0,0,0,0,0,0,0,0,0,0,0,0,0,0,0,0,0,0,0,0,0,-1.1821,-1.1821,0,-1.1748,-1.1748,-1.1747,-1.1688,-1.1687,-1.1687,-1.1686,-1.1612,-1.161,-1.1609,0,0,0,0,0,0,0,0,0,0,0,0,0,-1.191,-1.1909,-1.1822,-1.1821,-1.182,-1.1748,-1.1747,-1.1746,-1.1688,-1.1687,-1.1686,-1.1686,-1.1612,-1.1611,-1.1609,0,0,0,0,0,0,0,0,0,0,0,0,0,-1.1858,-1.1908,-1.1822,-1.1782,-1.1778,-1.1749,-1.1747,-1.1746,-1.1688,-1.1687,-1.1686,-1.1685,-1.1613,-1.1611,-1.1609,-1.1614,0,0,-1.1602,-1.1601,0,0,0,0,0,0,0,0,-1.1861,-1.1855,-1.1789,-1.1785,-1.178,-1.1726,-1.1751,-1.1702,-1.1688,-1.1722,-1.1686,-1.1685,-1.1651,-1.1645,-1.1634,-1.161,-1.1607,-1.1602,-1.1601,-1.16,-1.1599,0,0,0,0,0,0,0,-1.1864,-1.1857,-1.1793,-1.1788,-1.1782,-1.1767,-1.1759,-1.1742,-1.1692,-1.1719,-1.1715,-1.1707,-1.1648,-1.1636,-1.1632,-1.1606,-1.1602,-1.16,-1.1599,-1.1598,-1.1581,-1.1582,0,0,0,0,0,0,-1.1874,-1.1861,-1.1795,-1.179,-1.1819,-1.1767,-1.1757,-1.1744,-1.1692,-1.1684,-1.1708,-1.1704,-1.164,-1.1634,-1.1629,-1.163,-1.16,-1.1598,-1.1597,-1.1581,-1.1582,-1.1582,0,0,0,0,0,0,-1.1876,-1.1869,-1.1798,-1.1824,-1.1814,-1.1766,-1.1752,-1.1743,-1.1731,-1.1684,-1.1675,-1.1704,-1.1639,-1.1632,-1.1617,-1.1627,-1.1597,-1.1595,-1.158,-1.1581,-1.1582,-1.1634,0,0,0,0,0,0,-1.1879,-1.187,-1.1872,-1.1825,-1.1813,-1.1788,-1.1753,-1.1743,-1.1727,-1.1722,-1.1678,-1.167,-1.1638,-1.1621,-1.1615,-1.1623,-1.1593,-1.1579,-1.158,-1.1582,-1.1631,-1.1637,-1.1641,0,0,0,0,0,-1.1883,-1.1889,-1.1872,-1.1864,-1.1814,-1.1789,-1.1782,-1.1745,-1.1729,-1.1729,-1.1699,-1.1671,-1.1627,-1.162,-1.1613,-1.1621,-1.1578,-1.158,-1.1582,-1.1629,-1.1635,-1.1641,0,0,0,0,0,0,-1.1939,-1.1883,-1.1863,-1.1855,-1.1827,-1.1779,-1.1779,-1.1753,-1.173,-1.1726,-1.1681,-1.1671,-1.1662,-1.164,-1.1633,-1.1622,-1.1599,-1.1599,-1.1637,-1.1643,-1.1648,-1.1653,-1.1592,0,0,0,0,0,-1.1951,-1.1935,-1.1886,-1.1884,-1.1871,-1.1828,-1.1815,-1.1789,-1.1758,-1.1746,-1.1715,-1.1686,-1.1666,-1.1653,-1.1632,-1.1628,-1.1617,-1.1629,-1.1634,-1.1639,-1.164,-1.1635,-1.164,-1.1589,-1.1589,-1.1589,0,0,-1.1974,-1.1941,-1.1934,-1.1895,-1.187,-1.1854,-1.1818,-1.1804,-1.1791,-1.1744,-1.1728,-1.1704,-1.167,-1.166,-1.1655,-1.1642,-1.1652,-1.1641,-1.1645,-1.1644,-1.1638,-1.1642,-1.1647,-1.159,-1.159,-1.1589,0,0,-1.2009,-1.1983,-1.1978,-1.1954,-1.1917,-1.1887,-1.1886,-1.1842,-1.1824,-1.1807,-1.1771,-1.1756,-1.1722,-1.1698,-1.1682,-1.1707,-1.168,-1.1701,-1.1728,-1.1724,-1.1728,-1.1732,-1.174,-1.1743,-1.1702,-1.1703,-1.1703,0,-1.2043,-1.2019,-1.1978,-1.1965,-1.1949,-1.1905,-1.1899,-1.1877,-1.1835,-1.1825,-1.1811,-1.1766,-1.1739,-1.1723,-1.1729,-1.1718,-1.1715,-1.1706,-1.1731,-1.1734,-1.1736,-1.1744,-1.1747,-1.1705,-1.1705,-1.1705,-1.1704,0,-1.2062,-1.2045,-1.2045,-1.2005,-1.1988,-1.1979,-1.1937,-1.1925,-1.19,-1.1872,-1.1856,-1.1822,-1.1793,-1.1787,-1.1763,-1.1767,-1.176,-1.1739,-1.1715,-1.1745,-1.1751,-1.1753,-1.1709,-1.1708,-1.1707,-1.1707,0,0,-1.2131,-1.2068,-1.2069,-1.2049,-1.2005,-1.1991,-1.198,-1.195,-1.194,-1.1913,-1.1902,-1.1873,-1.1853,-1.1834,-1.1807,-1.1803,-1.1824,-1.1782,-1.1781,-1.1791,-1.1827,-1.1842,-1.1846,-1.1807,-1.1807,-1.1807,-1.1829,0,-1.2158,-1.2135,-1.2098,-1.2086,-1.207,-1.2027,-1.2017,-1.1989,-1.1962,-1.1945,-1.1915,-1.1896,-1.1871,-1.1859,-1.1854,-1.1823,-1.1831,-1.1821,-1.1796,-1.1795,-1.1805,-1.185,-1.1866,-1.1889,-1.1832,-1.1832,-1.1832,0,-1.2187,-1.2161,-1.2148,-1.2104,-1.2096,-1.2087,-1.2057,-1.204,-1.2007,-1.1988,-1.1967,-1.1937,-1.1922,-1.19,-1.1878,-1.1873,-1.186,-1.1843,-1.1843,-1.1839,-1.1815,-1.1846,-1.1895,-1.1898,-1.1836,-1.1835,-1.1835,0,-1.2238,-1.22,-1.2187,-1.2172,-1.212,-1.2115,-1.2093,-1.2059,-1.2043,-1.2017,-1.2006,-1.1979,-1.1963,-1.1943,-1.1906,-1.1893,-1.1888,-1.1863,-1.1872,-1.1873,-1.1872,-1.1873,-1.192,-1.1865,-1.1865,-1.1865,-1.1865,0,-1.2272,-1.2266,-1.2209,-1.2201,-1.2192,-1.2149,-1.2142,-1.2116,-1.2086,-1.2071,-1.2033,-1.2021,-1.1973,-1.1955,-1.1926,-1.1912,-1.1906,-1.189,-1.1882,-1.1893,-1.1895,-1.1884,-1.1882,-1.1866,-1.1866,-1.1866,-1.1866,0,-1.2327,-1.2289,-1.2272,-1.2224,-1.2212,-1.2207,-1.2166,-1.2156,-1.2128,-1.211,-1.2104,-1.2059,-1.2035,-1.1996,-1.1962,-1.1942,-1.1934,-1.1921,-1.1945,-1.1941,-1.1951,-1.195,-1.1992,-1.1995,-1.194,-1.194,-1.1941,0,-1.2352,-1.2345,-1.2297,-1.2284,-1.2264,-1.2245,-1.2228,-1.2186,-1.217,-1.2131,-1.2126,-1.21,-1.2076,-1.2041,-1.2005,-1.1979,-1.1965,-1.1981,-1.1961,-1.1971,-1.1964,-1.1965,-1.1964,-1.1986,-1.1987,-1.1987,-1.1988,0,-1.2398,-1.2379,-1.2357,-1.2328,-1.231,-1.2285,-1.2258,-1.225,-1.2202,-1.2187,-1.2162,-1.2144,-1.2108,-1.2082,-1.205,-1.2028,-1.2,-1.1995,-1.1995,-1.2006,-1.202,-1.2012,-1.1958,-1.1994,-1.1993,-1.1993,-1.1993,-1.1992,-1.2438,-1.243,-1.2394,-1.2371,-1.2346,-1.2322,-1.231,-1.2279,-1.2258,-1.2226,-1.2202,-1.2179,-1.2145,-1.2099,-1.2078,-1.2059,-1.2046,-1.2047,-1.2047,-1.2048,-1.2052,-1.2023,-1.2053,-1.2053,-1.2053,-1.2053,-1.2052,0,-1.2482,-1.2457,-1.2436,-1.2399,-1.238,-1.2355,-1.2324,-1.231,-1.229,-1.2261,-1.2238,-1.221,-1.2184,-1.2146,-1.2117,-1.211,-1.2096,-1.2104,-1.2104,-1.2099,-1.2065,-1.2067,-1.2115,-1.2115,-1.2115,-1.2115,-1.2115,-1.2115,-1.2503,-1.2488,-1.2465,-1.2437,-1.2412,-1.2389,-1.2373,-1.235,-1.2326,-1.2296,-1.2274,-1.2249,-1.2216,-1.2185,-1.216,-1.215,-1.2141,-1.2152,-1.2138,-1.2107,-1.2101,-1.2096,-1.2098,-1.2151,-1.2151,-1.2173,-1.2173,-1.2173]}]]